Content
SEND FEEDBACK

Daily
Averages
Monthly
Summary
United States of America

VOLCANO, HAWAII


Home > North America > United States > Hawaii
Elevation: 3800 feet     Latitude: 19 26N     Longitude: 155 16W

WEATHER
 
SELECT A DAY
Number of Records: 229,935;   Date Range: 1/1/95 - 7/23/14
 
SHARE

PRINT THIS DATA

[ ← Previous Day ]
WEATHER ALMANAC - FEBRUARY 20, 2013
[ Next Day → ]
[ °C ]   °F
Weather ElementAverageHighLow
Temperature69.6 °F79 °F (11:53 am)64 °F (2:13 am)
Dewpoint62.9 °F64.9 °F (8:53 am)61 °F (1:53 am)
Humidity80 %93 % (2:53 am)60 % (12:02 pm)
Barometer30.12 in30.17 in (9:53 am)30.07 in (3:53 am)
Wind Speed7.8 mph16.1 mph (10:53 am)
Weather ElementAverage
Visibility9 mi
Wind DirectionSE (134.9 °)

Weather ElementTotal
Precipitation2.15 in
Cooling Degree Days6.5 (Base 65)
Growing Degree Days21.5 (Base 50)
Averaged from 39 records on February 20, 2013
WEATHER CONDITIONS BREAKOUT
WIND DIRECTION BREAKOUT
WEATHER BY HOUR - FEBRUARY 20, 2013
[ °C ]   °F
Local TimeTemperatureDewpointHumidityBarometerVisibilityWind DirectionWind SpeedGust SpeedPrecipitationEventsConditions
12:21 AM64.9 °F62.1 °F90 %30.14 in7.0 miVariable3.5 mph0.16 inRainLight Rain
12:53 AM64.9 °F62.1 °F90 %30.12 in10.0 miSSW (210°)4.6 mph0.17 inRainLight Rain
1:53 AM64.9 °F61.0 °F87 %30.11 in6.0 miVariable3.5 mph0.05 inRainLight Rain
2:13 AM64.0 °F61.0 °F90 %30.10 in2.5 miWSW (250°)8.1 mph0.09 inRainLight Rain
2:20 AM64.0 °F61.0 °F90 %30.10 in6.0 miWSW (240°)6.9 mph0.11 inRainRain
2:53 AM64.0 °F62.1 °F93 %30.08 in10.0 miWest (260°)8.1 mph0.17 inRainLight Rain
3:53 AM64.0 °F62.1 °F93 %30.07 in10.0 miSW (230°)8.1 mph0.07 inRainLight Rain
4:53 AM64.9 °F62.1 °F90 %30.08 in10.0 miWSW (250°)5.8 mph0.14 inRainLight Rain
5:04 AM64.9 °F62.1 °F90 %30.09 in1.8 miWest (270°)5.8 mph0.01 inRainHeavy Rain
5:21 AM64.0 °F62.1 °F93 %30.09 in2.0 miSSE (160°)9.2 mph0.28 inRainHeavy Rain
5:34 AM64.0 °F62.1 °F93 %30.10 in4.0 miWSW (240°)9.2 mph0.42 inRainHeavy Rain
5:53 AM64.9 °F62.1 °F90 %30.09 in10.0 miWest (280°)9.2 mph0.47 inOvercast
6:16 AM64.9 °F62.1 °F90 %30.11 in10.0 miSW (220°)6.9 mph0.00 inRainLight Rain
6:23 AM64.9 °F62.1 °F90 %30.11 in10.0 miVariable3.5 mph0.00 inRainLight Rain
6:53 AM66.0 °F62.1 °F87 %30.12 in10.0 miWSW (250°)6.9 mph0.01 inOvercast
7:06 AM66.0 °F63.0 °F90 %30.13 in10.0 miSouth (180°)4.6 mphMostly Cloudy
7:37 AM66.9 °F63.0 °F87 %30.14 in10.0 miSW (230°)4.6 mphMostly Cloudy
7:53 AM68.0 °F64.0 °F87 %30.14 in10.0 miWest (260°)5.8 mph0.00 inMostly Cloudy
8:33 AM70.0 °F64.0 °F81 %30.16 in10.0 miVariable3.5 mph0.00 inOvercast
8:53 AM71.1 °F64.9 °F81 %30.16 in10.0 miSSE (160°)4.6 mph0.00 inOvercast
9:53 AM75.0 °F64.9 °F71 %30.17 in10.0 miENE (70°)5.8 mphMostly Cloudy
10:53 AM75.9 °F64.0 °F67 %30.17 in10.0 miENE (70°)16.1 mphMostly Cloudy
11:53 AM79.0 °F64.9 °F62 %30.15 in10.0 miNE (50°)15.0 mphMostly Cloudy
12:02 PM79.0 °F64.0 °F60 %30.15 in10.0 miNE (50°)13.8 mphMostly Cloudy
12:53 PM78.1 °F63.0 °F60 %30.12 in10.0 miENE (60°)12.7 mphScattered Clouds
1:53 PM78.1 °F64.0 °F62 %30.11 in10.0 miNNE (30°)15.0 mphPartly Cloudy
2:53 PM78.1 °F64.0 °F62 %30.09 in10.0 miNNE (20°)12.7 mphMostly Cloudy
3:16 PM77.0 °F64.0 °F64 %30.10 in10.0 miNorth (10°)12.7 mphMostly Cloudy
3:40 PM75.0 °F63.0 °F66 %30.10 in10.0 miNNE (30°)10.4 mphScattered Clouds
3:53 PM75.0 °F63.0 °F66 %30.10 in10.0 miNNE (30°)9.2 mphScattered Clouds
4:53 PM75.0 °F63.0 °F66 %30.10 in10.0 miNNE (20°)11.5 mphScattered Clouds
5:53 PM72.0 °F63.0 °F73 %30.12 in10.0 miNE (40°)8.1 mphMostly Cloudy
6:53 PM72.0 °F63.0 °F73 %30.13 in10.0 miNE (40°)8.1 mphPartly Cloudy
7:53 PM71.1 °F63.0 °F75 %30.14 in10.0 miNE (40°)6.9 mphScattered Clouds
8:53 PM70.0 °F62.1 °F76 %30.16 in10.0 miNNE (30°)5.8 mph0.00 inMostly Cloudy
9:53 PM70.0 °F63.0 °F78 %30.17 in10.0 miNNW (340°)4.6 mphOvercast
10:53 PM69.1 °F64.0 °F84 %30.16 in10.0 miSSE (160°)3.5 mph0.00 inRainLight Rain
11:48 PM66.2 °F62.6 °F88 %30.15 in10.0 miWSW (240°)5.8 mph0.00 inMostly Cloudy
11:53 PM66.9 °F62.1 °F84 %30.15 in10.0 miWSW (240°)5.8 mph0.00 inMostly Cloudy
Hourly data recorded from PHTO, located miles away from Volcano, Hawaii







STORIES FROM OUR PARTNERS